CZ-3C DEB, 40178

Orbit data source: Space-Track

CZ-3C DEB, 40178 is space debris originally from a launch on Sun, 31 Oct 2010 UTC launched from the Xichang Space Center, China (XSC). Debris objects in space refer to the collection of defunct objects orbiting the Earth. Examples of debris include non-operational satellites, rocket bodies, and fragments generated from explosions, collisions, or faulty payload assembly.

Loading next visibility...
CZ-3C DEB details
Identifier
40178, 2010-057AG
Orbit
Molniya
Last TLE update22 hours ago
Origin
Flag of CNCASC (CN / PRC)
ManufacturerCALT
MissionSpacecraft
Bus & MotorUnknown
MassUnknown
Launch date (UTC)
2010-10-31 (14 years ago)
Launch vehicleUnknown
Launch site
Xichang Space Center, China (XSC)
Object type
Payload
Rocket body
Debris
Shape & HBRUnknown
Radar Cross SectionMedium (>0.1 m² and <1 m²)

Expand to show TLE details & history

TLE from 22 hours ago
0 CZ-3C DEB
1 40178U 10057AG  24338.49640240 -.00000095  00000-0  95849-2 0  9994
2 40178  18.9421 103.9101 7200655 255.2297 104.4579  2.09724316 20409
Epoch: 2024-12-03T11:54Z
Definitive object data (Epoch: 2024-12-03T11:54:49.167Z)
Latitude15.60754°
Longitude-93.31964°
Altitude32,277.442 km
Speed2.272 km/s
True Right ascension10h 32m 45s
True Declination15° 35' 28"
Sunlit
Object was in daylight at TLE epoch
Visualization TLE readout
Latitude12.20955°
Longitude-109.01275°
Altitude23,751.026 km
Speed3.316 km/s
Apparent Right ascension09h 53m 03s
Apparent Declination5° 09' 28"
Sunlit
Object is in daylight
Visualization observer readout
Local Sidereal Time07:24:24
Azimuth126.202° SE
Elevation41.793°
Doppler factor1
Orbital elements
Apogee altitude37,974.599 km
Perigee altitude840.112 km
Semi-major axis25,785.493 km
Eccentricity0.7200655
Inclination18.9421°
RAAN103.9101°
Arg. of periapsis255.2297°
True anomaly160.60748°
Mean anomaly104.4579°
Eccentric anomaly134.09029°
Mean motion0.52418 °/min
BSTAR0.0095849
Orbital period686.79 mins
Loading maneuver chart data...
Loading historical data...
Loading historical data...
Loading historical data...
Loading historical data...
Loading historical data...
Loading historical data...
Loading historical data...

CZ-3C DEB Visibility forecast

Observer location: undefined°, undefined

Span
Click to sort rows by Start time (UTC) header in descending order
Start Az.
Max El. time (UTC)
Max El. Az.
Max El.
End time (UTC)
End Az.
540 mins2024-12-04 09:30:06.998Z126.227° SE2024-12-04 14:50:06.998Z178.413° S42.269°2024-12-04 18:30:06.998Z136.255° SSE
160 mins2024-12-05 06:50:06.998Z157.841° S2024-12-05 09:30:06.998Z109.107° ESE30.622°2024-12-05 09:30:06.998Z109.107° ESE
|